Location: *
(28.3744°N, 81.5492°W)
Time: 03:51:25
(UTC+00:00)

Sakura Rocket - Pass Details

Date: 15 June 2025
Orbit: 474 x 1696 km, 28.7° (Epoch: 11 July)

Event Time Altitude Azimuth Distance (km) Brightness Sun altitude
Rises 02:05:24 0° 273° (W) 2,574 7.1 -19.1°
Reaches altitude 10° 02:07:24 10° 274° (W) 1,757 6.1 -19.5°
Maximum altitude 02:11:22 87° 360° (N) 607 2.9 -20.1°
Enters shadow 02:12:59 41° 90° (E) 937 3.6 -20.4°
